{"data":{"norad_id":53727,"intl_designator":"2022-107AD","name":"STARLINK-4701","alt_names":[],"object_type":"PAYLOAD","status":"ACTIVE","operator":null,"country":"US","launch_date":"2022-09-05","launch_site_code":"AFETR","launch_vehicle":null,"mission":null,"orbit_class":"UNKNOWN","rcs_meters":null,"size_class":null,"mass_kg":null,"dimensions":null,"purposes":["comms"],"wikipedia_slug":null,"has_3d_model":false,"image_url":null,"decayed_at":null,"tle_current":{"epoch":"2026-09-20T21:05:16.474560Z","epoch_age_seconds":48990,"freshness":"FRESH","line1":"1 53727U 22107AD  26263.87866290  .00001148  00000+0  45121-4 0  9991","line2":"2 53727  53.1601  83.6695 0001180  94.2600 265.8538 15.34388345224212","mean_motion":15.34388345,"eccentricity":0.000118,"inclination_deg":53.1601,"raan_deg":83.6695,"arg_perigee_deg":94.26,"mean_anomaly_deg":265.8538,"bstar":4.5121e-5,"rev_number":22421,"period_min":93.848470935824,"perigee_km":461.93065830654,"apogee_km":463.54510477858,"semimajor_km":6840.8748815426,"source":"CELESTRAK","updated_at":"2026-09-21T09:00:32.986682Z"}}}